Погода в Приладожском

Россия / Санкт-Петербург и Ленинградская область     59°52′31″N   31°19′30″E
темп.,
°C
ветер,
м/с
пор.,
м/с
влажн.,
%
обл.,
%
осадки,
мм/ч
давл.,
гПа
погр.,
м
31 июля, сб
сб3100:00+16ююз511696 0.0 998280
03:00+16ю51170100 0.0 995317
06:00+15ююз81288100 0.3 994786
09:00+16юз7118465 1.0 994824
12:00+17зюз9148331 2.4 995998
15:00+19з9136513 2.7 998811
18:00+20з711600 0.0 999679
21:00+17зюз45707 0.0 100165
1 августа, вс
вс100:00+17юз357199 0.0 100292
03:00+15юз49905 0.0 1002237
06:00+15ююз4994100 0.0 1002281
09:00+17ю3685100 0.4 1002280
12:00+18ююз6108499 1.8 1002493
15:00+21юз58715 4.3 1001503
18:00+20юз586730 0.6 1001394
21:00+18зюз6117518 0.7 1002408
2 августа, пн
пн200:00+16юз61187100 0.0 1003433
03:00+15юз511915 0.0 1004385
06:00+14юз598999 0.0 1005305
09:00+18юз4768100 0.0 1005508
12:00+20ююз1364100 0.0 1004595
15:00+20юв2372100 0.3 1002122
18:00+16ююз3595100 4.0 1002208
21:00+16сз2296100 6.1 1000120
3 августа, вт
вт300:00+15зсз2396100 1.4 999150
03:00+15зсз3595100 1.6 999210
06:00+15зюз359537 1.2 1000169
09:00+16зюз58865 2.5 1000472
12:00+20зюз58585 0.2 1001708
15:00+19з7106410 0.3 1003674
18:00+17з711660 0.0 1005991
21:00+15з698027 0.0 1006607
4 августа, ср
ср400:00+14з4888100 0.3 1008308
03:00+14зсз488099 0.3 1010347
06:00+14сз3570100 0.0 1011247
09:00+14зсз2265100 0.0 1013177
12:00+17ссв12529 0.0 1015703
15:00+16в335997 0.0 1015276
18:00+19ссв125074 0.0 1015728
21:00+16в226352 0.0 101625